RH
13 13 13 13 13 13 12 12 13 14 15 15 17 16 14 14 13 14 15 14 14 13 13 14 14 14 14 15 15 15 14 15 15 15 15 15 15 13 12 12 14 16 17 18 18 17 17 16 17 16 17 18 20 24 26 26 28 32 36 35 34 34 33 32 36 39 39 45 47 46 50 52 54 57 56 56 55 56 57 55 55 55 55 56 57 56 58 60
13 13 13 14 14 13 13 14 15 15 14 16 17 15 14 14 13 15 16 15 14 14 14 14 14 14 14 14 14 14 14 14 14 14 13 14 13 11 11 12 15 17 17 17 17 17 16 16 17 16 18 22 23 25 25 25 27 33 38 37 35 34 31 30 32 37 40 42 47 49 51 52 53 54 54 57 59 57 57 58 58 58 58 58 59 59 60 62
14 13 13 14 14 14 14 15 15 15 15 17 17 14 14 14 14 16 17 16 15 14 14 14 14 15 15 15 14 14 14 14 13 13 13 13 12 11 12 14 16 17 17 16 16 17 17 17 17 17 20 22 24 25 25 26 27 31 38 39 36 33 30 30 33 36 38 38 44 50 50 51 52 52 53 57 60 56 55 59 58 58 58 59 60 59 60 63
15 14 14 14 15 15 15 16 16 15 16 18 17 15 14 14 15 16 17 16 16 14 14 14 14 15 15 15 15 15 15 13 12 13 14 13 11 11 13 16 17 17 17 16 17 18 18 18 18 19 21 22 24 26 26 27 28 32 38 40 37 32 29 32 35 37 39 39 44 51 49 50 52 51 52 55 55 52 52 55 54 55 56 58 60 59 61 63
17 17 16 15 15 16 17 17 16 16 16 19 18 15 14 15 16 16 17 17 17 16 15 14 15 15 15 15 16 17 16 14 13 14 14 13 12 12 14 17 18 18 18 17 18 18 19 19 20 20 22 23 25 29 29 28 29 34 39 39 37 32 29 31 33 35 39 42 45 48 48 49 51 50 49 48 48 47 47 50 51 51 53 57 58 58 60 62
19 19 19 18 17 17 18 18 17 16 17 19 19 17 15 16 16 16 17 17 18 17 16 15 15 15 16 16 16 17 17 15 13 13 14 14 14 13 14 17 19 19 18 18 18 19 20 20 21 21 22 23 26 29 29 26 26 32 36 33 31 29 27 27 29 33 38 42 45 47 47 49 50 50 47 43 44 45 41 44 49 50 53 55 55 56 58 59
20 21 21 21 20 20 20 20 19 18 18 19 20 18 16 16 17 17 17 18 18 17 17 16 15 15 16 16 16 15 15 14 13 13 13 14 14 14 15 17 19 19 19 18 19 21 21 21 22 22 23 24 25 27 26 24 24 28 29 27 28 27 26 25 26 31 36 41 46 45 46 49 51 50 48 44 42 43 40 42 49 52 55 55 54 56 58 59
20 20 20 20 20 21 22 23 22 21 20 21 21 19 17 17 17 18 18 18 18 17 17 16 16 16 16 16 16 15 14 13 13 13 13 14 15 15 15 17 19 19 18 18 19 22 21 22 23 23 24 24 24 24 24 23 24 26 26 24 25 24 24 23 24 32 38 42 45 44 48 50 47 45 47 46 42 42 41 42 50 54 56 56 56 57 59 62
21 21 20 20 20 20 21 23 24 24 23 22 22 21 18 18 18 18 18 18 18 18 17 17 17 16 17 16 16 15 13 13 13 13 12 14 16 16 16 18 20 20 19 18 18 21 21 22 23 23 23 24 23 22 22 23 24 25 24 23 24 23 23 22 26 33 39 45 45 46 51 50 44 42 44 47 46 44 42 43 51 55 56 58 59 59 61 64
21 21 21 21 20 20 21 22 24 25 25 24 23 23 21 19 19 19 19 19 18 19 19 18 17 17 17 16 17 16 13 13 14 13 13 14 16 17 17 19 20 20 19 18 17 19 21 21 23 24 24 24 23 22 21 22 23 23 22 23 23 23 23 24 30 35 39 46 45 47 55 52 47 44 43 47 48 46 45 46 52 55 56 58 60 61 61 63
21 21 21 21 20 20 21 22 24 24 24 24 24 23 23 22 21 20 20 20 19 20 20 20 19 17 16 17 18 16 14 14 14 13 14 14 16 17 18 19 20 20 19 18 18 18 20 21 23 24 24 24 24 23 21 22 22 22 22 23 23 24 28 30 35 37 38 43 43 46 54 52 47 45 43 46 47 46 46 48 52 55 57 58 59 61 61 62
21 20 20 20 19 19 20 22 23 24 24 24 25 24 24 24 23 22 22 22 22 22 22 21 19 18 17 17 17 16 14 14 14 14 14 14 15 17 18 18 20 20 19 19 18 17 19 20 22 24 24 23 24 24 23 24 24 23 22 22 22 25 31 35 37 37 36 42 42 41 49 48 43 45 46 46 47 46 46 46 50 55 58 59 59 60 61 62
20 20 20 20 19 18 18 20 22 24 24 24 24 24 24 25 24 24 23 23 24 23 22 22 20 19 18 17 16 15 14 14 14 14 14 14 15 16 17 17 19 20 20 20 19 18 18 20 22 23 23 23 24 24 24 24 23 23 21 21 22 22 27 31 34 36 36 41 40 36 45 47 43 48 49 48 48 48 47 46 48 53 58 60 59 61 60 60
21 20 20 19 19 18 18 19 20 23 24 24 25 25 26 26 25 25 25 25 25 24 23 23 23 21 19 18 16 15 15 14 14 14 14 14 14 15 16 17 18 20 20 19 19 18 18 19 21 21 23 23 22 23 24 23 22 23 21 21 24 21 23 25 28 36 38 42 40 33 39 41 43 50 50 49 50 48 48 47 46 50 56 59 59 59 57 58
22 21 20 20 20 19 18 18 19 21 24 24 25 25 26 27 27 26 25 25 25 25 24 23 23 22 20 18 17 16 16 15 15 15 14 14 14 14 15 16 17 18 20 19 19 18 18 18 19 20 22 21 21 23 24 24 24 24 22 22 24 21 21 21 24 35 38 42 42 33 35 40 44 52 51 50 51 50 49 47 46 48 52 57 58 57 54 58
22 21 20 20 20 19 19 18 18 20 23 23 23 24 25 27 28 27 26 26 26 26 25 24 23 23 21 19 18 17 16 17 16 15 15 15 14 13 13 14 16 18 19 19 18 18 18 18 19 20 19 19 21 23 25 27 27 27 25 24 23 22 23 21 22 31 34 39 42 34 37 45 46 49 50 50 51 51 50 47 46 46 49 53 55 55 53 56
22 21 21 20 19 20 19 19 18 19 22 23 22 23 24 26 26 26 26 26 27 27 27 26 24 24 22 20 19 18 17 17 16 16 16 15 14 14 14 14 16 17 18 19 18 18 19 19 19 19 19 20 21 24 26 27 28 31 31 28 25 25 24 23 23 26 29 36 41 37 39 45 47 48 50 49 50 52 51 49 47 48 49 50 50 52 52 53
22 21 21 20 19 20 20 20 19 19 22 23 23 24 26 26 26 25 26 27 27 28 30 28 26 27 25 21 20 20 19 18 17 17 16 15 15 15 15 16 16 17 18 19 18 19 19 19 20 21 22 22 22 26 27 26 26 28 30 29 26 25 24 25 25 26 30 35 40 40 40 45 49 49 49 49 51 53 53 51 50 50 50 50 48 48 49 50
22 21 21 21 19 19 20 20 20 20 22 24 24 25 26 26 26 26 26 27 27 27 30 29 28 30 27 22 22 22 20 19 18 17 16 16 16 16 17 17 17 17 18 20 20 19 19 19 20 22 24 22 21 25 25 24 24 24 26 27 25 24 24 25 26 28 34 39 41 43 43 46 50 49 48 50 51 52 53 51 50 49 50 51 48 44 45 48
22 22 21 21 20 19 19 20 21 21 22 25 25 26 27 28 30 31 27 25 24 25 27 27 28 28 26 24 24 23 21 20 19 18 18 18 17 18 18 17 17 17 17 19 20 19 20 21 21 22 24 23 22 23 22 22 24 24 25 26 25 25 24 25 26 27 31 34 39 46 48 48 50 47 46 49 50 51 51 50 49 49 49 50 48 45 44 45
23 22 22 22 21 20 19 20 21 23 24 26 27 27 29 31 34 35 31 26 24 23 25 27 27 27 27 25 24 24 22 22 21 19 19 19 19 18 18 18 18 18 19 18 19 20 21 22 23 22 24 24 23 23 22 22 23 24 25 25 25 25 25 24 24 26 27 30 38 46 49 49 48 46 44 46 47 47 49 49 49 48 47 47 46 45 45 45
23 23 22 22 22 21 19 20 21 24 26 27 28 30 31 33 34 35 35 32 27 24 26 28 27 26 27 26 25 24 25 25 23 20 20 20 19 19 19 20 19 19 20 19 21 24 23 22 23 23 23 25 25 25 24 24 25 25 25 27 27 26 26 26 26 27 29 33 42 47 49 50 48 45 43 43 44 45 46 47 47 46 45 44 42 42 44 46
23 23 23 23 23 22 21 21 21 23 26 27 29 30 31 33 34 34 35 36 31 26 28 30 27 26 26 26 25 25 25 26 24 21 21 20 20 20 20 21 21 21 21 21 22 22 22 24 24 23 24 24 26 27 27 27 27 27 27 28 28 27 28 28 27 28 31 36 44 47 47 48 46 45 44 43 43 44 43 43 42 43 41 41 39 38 41 46
22 23 24 24 24 24 23 22 22 24 26 26 29 32 32 32 33 32 33 36 35 30 29 31 30 27 27 27 26 25 26 25 24 23 21 21 21 21 21 22 22 22 22 23 23 22 23 24 24 24 25 25 26 27 29 29 27 27 27 27 27 27 28 28 26 28 31 33 38 41 42 44 45 46 47 45 44 43 41 39 39 39 39 40 39 36 38 42
23 24 25 25 25 25 24 24 24 26 26 25 28 32 32 31 31 31 33 37 39 35 33 33 32 30 28 28 27 26 26 26 24 24 22 21 22 22 22 22 22 22 23 24 23 22 23 23 23 25 25 25 26 26 27 27 27 25 24 25 25 25 26 26 26 28 31 31 31 33 37 40 41 43 47 46 44 42 40 39 38 38 38 38 38 37 37 39
26 26 26 26 26 26 26 27 26 26 26 26 29 32 31 31 31 31 36 43 43 38 35 34 34 32 30 30 29 27 28 28 26 25 24 22 23 22 22 23 23 22 24 25 23 22 23 23 23 24 24 25 25 24 25 26 27 25 23 22 23 24 24 24 24 25 28 29 27 30 35 38 36 37 41 42 41 40 39 38 38 37 37 37 36 37 38 38
29 28 27 28 28 27 27 27 27 26 27 28 30 31 30 31 33 35 39 43 42 38 37 36 35 34 33 31 30 29 31 30 27 26 26 25 24 22 22 25 24 23 24 25 26 26 25 24 24 26 26 25 24 24 26 27 27 26 23 22 23 23 22 23 24 24 27 27 27 31 32 31 30 30 34 38 38 39 38 37 37 37 38 37 37 38 38 38
31 30 29 29 28 28 27 27 27 28 29 30 31 32 32 34 38 40 40 37 37 38 38 38 37 35 34 33 32 31 30 29 28 28 27 26 25 24 24 25 26 27 26 25 29 31 28 25 26 27 28 27 28 28 28 28 26 27 27 27 26 24 24 25 24 25 27 24 25 31 28 26 29 31 34 38 38 38 37 37 37 37 37 37 37 38 40 39
32 32 31 29 29 29 28 28 29 29 30 30 31 32 34 38 41 43 42 37 36 39 39 39 39 37 36 34 33 32 30 29 30 29 28 27 27 26 26 26 27 28 26 26 30 31 28 27 27 28 27 28 31 30 29 27 27 29 31 30 30 29 29 30 27 27 28 25 25 30 27 24 29 33 36 40 39 37 36 36 37 37 37 37 38 39 41 41
33 33 32 31 30 29 29 30 30 29 30 30 31 32 35 42 47 47 44 41 40 41 39 38 40 39 37 36 35 34 32 31 31 30 29 29 29 29 28 29 28 29 31 32 31 30 29 28 29 28 26 29 31 30 28 27 27 29 30 31 30 31 33 37 37 31 29 31 30 32 30 25 28 34 36 37 38 36 34 36 39 38 37 37 38 38 40 42
34 33 32 32 31 31 31 31 30 31 30 30 31 33 37 44 52 51 45 42 44 44 40 39 41 40 38 38 39 38 35 33 33 32 31 31 31 31 31 33 33 36 43 41 33 33 33 30 31 30 27 29 29 29 29 30 30 30 32 33 31 33 34 37 40 34 32 37 35 34 33 27 28 34 33 32 34 36 37 38 39 38 37 37 36 37 38 41
33 32 32 32 32 32 33 32 32 32 30 30 31 35 42 46 49 51 49 45 46 48 44 42 43 42 40 40 41 40 37 36 35 34 34 33 34 35 35 38 40 39 45 45 37 38 39 36 35 33 31 31 30 33 33 34 35 33 35 39 39 42 41 41 46 42 39 41 36 35 35 30 30 31 29 30 30 34 38 38 38 37 35 34 34 36 39 41
29 30 29 30 31 32 33 32 32 32 31 32 33 39 49 51 48 51 53 48 48 50 48 45 46 45 42 41 43 43 39 39 39 37 36 35 36 38 39 42 42 38 41 45 42 42 43 42 39 34 34 33 33 35 35 36 37 34 36 40 44 51 50 50 56 50 44 43 39 40 39 34 34 31 29 31 29 31 34 35 36 36 34 34 34 36 38 39
25 26 26 28 29 31 33 32 31 33 31 32 36 43 48 50 52 54 55 53 52 52 51 49 49 47 43 42 46 45 41 40 41 39 39 39 38 41 43 42 42 42 45 45 44 44 45 45 42 36 36 36 35 38 39 40 39 36 39 40 41 48 48 48 53 49 45 44 41 41 41 38 37 32 31 33 31 31 32 32 35 35 34 35 35 36 37 37
24 25 26 27 28 30 32 32 32 33 31 34 42 47 49 50 52 54 56 56 53 51 49 49 50 48 48 50 50 47 42 42 43 42 42 42 42 45 48 46 46 47 48 46 46 46 43 45 46 42 40 38 37 40 41 42 40 40 41 40 40 44 44 45 49 48 45 43 42 42 40 40 38 33 34 36 32 31 29 31 34 33 34 34 34 35 37 38
25 25 27 28 28 30 30 31 34 32 31 38 44 47 50 51 50 52 55 53 50 51 52 52 51 50 51 54 54 52 47 45 47 46 46 46 45 46 49 50 48 47 46 47 49 48 45 48 51 47 44 43 41 41 41 40 42 44 43 43 44 44 45 47 48 50 49 45 46 45 40 41 39 33 36 38 34 32 32 33 35 34 35 35 33 34 35 37
29 28 29 30 31 32 31 32 36 34 33 38 42 47 51 49 49 54 54 47 46 52 55 55 53 51 53 54 55 57 53 49 50 50 50 51 48 46 47 48 47 45 45 46 49 50 48 50 53 49 45 46 45 43 44 42 43 45 44 46 46 43 47 49 48 54 57 53 52 48 43 44 42 37 39 38 36 35 35 37 38 38 39 37 34 32 33 36
33 32 33 34 35 35 35 36 37 37 37 40 43 49 52 49 50 53 50 45 46 49 53 55 54 53 55 54 54 57 55 52 55 54 53 53 50 47 48 46 45 45 44 43 46 50 49 50 54 51 46 48 48 46 47 46 44 46 46 46 45 45 51 50 48 54 55 54 58 53 47 47 45 44 42 37 37 38 36 38 40 42 42 38 33 30 31 33
37 37 37 38 39 38 38 39 40 40 41 43 46 48 49 50 52 51 47 48 49 49 52 55 53 53 56 56 55 56 55 56 58 55 54 54 51 49 48 47 47 45 44 45 48 52 51 49 53 53 48 48 48 48 51 51 48 48 49 48 48 52 55 50 49 52 49 54 63 58 49 47 45 47 45 40 42 42 38 38 39 39 37 34 32 30 30 31
39 39 39 43 45 42 41 42 44 44 44 47 50 50 50 51 51 48 46 48 50 52 54 57 55 55 57 58 57 55 56 61 60 56 57 56 54 53 51 49 49 48 47 47 49 54 52 48 52 56 52 48 48 50 53 52 52 51 52 52 52 52 54 51 52 54 51 57 67 63 54 48 45 48 47 43 45 45 41 40 39 36 31 30 32 31 31 31
41 42 41 45 48 45 45 47 48 49 50 51 52 53 53 51 49 48 46 46 49 51 54 56 57 57 57 57 56 55 57 62 61 57 58 56 55 55 53 51 51 50 51 51 52 55 54 51 57 59 53 50 53 54 52 51 54 55 54 56 55 54 56 56 58 60 56 57 63 63 58 50 47 50 49 44 46 47 45 44 41 37 33 32 33 32 32 32
44 45 46 50 51 49 50 52 53 55 57 53 51 52 52 51 52 52 49 46 48 50 52 55 56 58 58 56 57 58 57 59 60 58 57 57 57 56 53 52 51 51 53 55 55 56 57 56 56 56 55 55 55 55 53 52 54 55 56 59 60 60 60 60 62 64 61 61 62 63 61 54 51 55 52 47 48 48 47 47 45 42 39 38 37 36 35 33
47 48 49 53 56 54 53 55 55 58 60 56 52 52 52 52 54 54 50 48 49 52 54 56 56 57 57 56 56 57 56 56 58 58 57 59 58 55 52 50 50 52 55 56 57 57 59 57 55 56 62 62 57 56 57 55 53 53 56 60 61 62 62 63 67 66 63 64 64 64 65 58 55 59 57 53 52 50 48 47 46 45 43 41 40 39 38 36
53 50 49 54 60 59 57 58 58 59 60 58 55 54 54 53 54 53 51 49 47 51 56 58 57 55 56 57 56 56 56 54 55 57 57 59 57 53 52 51 51 54 54 55 57 56 57 62 61 61 65 65 62 61 60 58 56 55 58 60 60 62 64 65 68 67 64 65 63 63 65 61 58 60 58 56 56 54 51 48 47 46 44 42 43 42 42 40
57 54 52 57 64 65 61 60 61 63 64 61 58 58 56 55 54 53 52 48 46 49 55 58 58 57 58 59 57 57 58 55 55 57 57 58 58 55 54 53 52 53 52 54 56 56 59 65 64 62 66 68 66 64 64 61 58 56 58 60 60 62 64 65 68 67 67 68 64 60 59 57 58 58 56 57 58 56 52 50 49 48 45 43 44 44 45 45
63 61 60 61 66 69 66 62 61 63 65 63 62 62 60 58 56 52 51 50 49 50 53 56 59 60 61 61 60 61 61 58 58 59 59 60 60 57 55 54 54 55 56 57 57 59 64 66 65 64 66 67 65 66 67 64 60 59 59 59 62 64 65 68 70 68 67 69 66 62 59 56 57 58 57 58 60 59 57 54 52 50 46 44 45 46 47 47
68 67 64 63 68 71 70 66 64 64 65 65 65 65 62 62 58 53 51 51 51 54 56 59 61 61 62 64 65 66 66 64 63 62 62 62 63 61 57 55 56 57 59 59 56 60 65 65 65 67 66 66 66 67 67 65 62 62 63 61 63 66 67 67 66 64 66 68 65 64 64 60 57 58 59 59 60 61 61 58 53 50 47 46 46 46 47 47
69 66 64 64 69 72 71 68 67 67 66 65 67 68 66 63 60 55 53 52 54 57 60 64 66 65 65 66 67 69 70 69 68 67 66 66 66 66 61 58 58 58 59 60 59 62 66 64 66 68 67 68 69 69 70 70 67 66 67 65 65 68 69 64 61 63 67 65 61 64 67 62 57 58 58 58 60 60 58 55 51 50 48 46 46 46 47 47
66 63 63 66 68 69 70 69 68 70 68 67 70 72 69 66 64 59 56 56 60 60 61 65 69 69 69 66 65 69 71 71 71 71 71 70 69 69 66 63 62 60 62 64 64 65 66 67 69 68 66 68 71 71 71 71 69 68 69 69 69 68 66 62 61 65 66 63 61 64 66 61 59 61 58 57 60 60 55 51 49 48 47 45 46 46 46 47
69 66 65 68 68 68 69 70 72 75 74 71 74 75 71 68 66 62 58 59 63 64 65 67 67 68 70 68 63 67 71 72 72 71 71 72 70 70 70 68 66 66 67 69 68 65 65 70 75 71 68 70 72 71 70 70 70 68 67 69 71 69 67 65 65 67 67 63 61 64 65 60 61 64 61 58 59 59 56 52 49 47 46 46 47 46 45 46
72 73 72 72 71 71 71 71 74 79 79 77 79 78 72 68 65 61 61 61 65 69 70 70 68 67 69 67 64 65 69 73 74 73 73 72 70 70 71 70 69 71 73 72 71 68 67 72 76 72 71 73 71 69 69 68 68 68 66 67 68 67 67 66 65 65 65 62 60 63 62 57 59 65 65 62 63 62 58 54 51 48 48 48 49 47 46 46
72 76 77 75 73 74 74 73 76 80 80 79 79 77 71 67 65 63 63 64 66 71 74 72 72 71 68 66 65 65 67 70 73 75 74 72 71 71 71 71 70 72 75 75 72 71 71 73 76 76 74 73 72 71 71 69 68 67 65 64 65 66 67 66 63 62 63 63 62 61 58 56 61 67 67 65 65 63 58 54 52 50 49 49 50 49 49 48